Time,TemperatureF,DewpointF,PressureIn,WindDirection,WindDirectionDegrees,WindSpeedMPH,WindSpeedGustMPH,Humidity,HourlyPrecipIn,Conditions,Clouds,dailyrainin,SoftwareType,DateUTC
2013-05-20 00:01:00,64.6,60.6,29.90,West,260,0.0,0.0,87,0.00,RA,,0.00,WeatherDisplay:10.37,2013-05-20 04:01:00,
2013-05-20 00:06:00,64.6,60.6,29.91,West,260,0.0,0.0,87,0.00,RA,,0.00,WeatherDisplay:10.37,2013-05-20 04:06:00,
2013-05-20 00:11:00,64.2,59.9,29.91,West,260,0.0,0.0,86,0.00, +RA,,0.00,WeatherDisplay:10.37,2013-05-20 04:11:00,
2013-05-20 00:16:00,64.2,59.9,29.90,West,260,0.0,0.0,86,0.00, +RA,,0.00,WeatherDisplay:10.37,2013-05-20 04:16:00,
2013-05-20 00:21:00,64.2,59.9,29.90,West,260,0.0,0.0,86,0.00, +RA,,0.00,WeatherDisplay:10.37,2013-05-20 04:21:00,
2013-05-20 00:26:00,64.2,60.3,29.90,West,260,0.0,0.0,87,0.00, +RA,,0.00,WeatherDisplay:10.37,2013-05-20 04:26:00,
2013-05-20 00:31:00,64.2,60.3,29.90,West,260,0.0,0.0,87,0.00,-DZ,,0.02,WeatherDisplay:10.37,2013-05-20 04:31:00,
2013-05-20 00:36:00,64.2,60.3,29.90,West,260,0.0,0.0,87,0.00,-DZ,,0.02,WeatherDisplay:10.37,2013-05-20 04:36:00,
2013-05-20 00:41:00,64.2,60.3,29.90,West,260,0.0,0.0,87,0.00,-DZ,,0.02,WeatherDisplay:10.37,2013-05-20 04:41:00,
2013-05-20 00:46:00,64.0,60.1,29.90,West,260,0.0,0.0,87,0.00,-DZ,,0.02,WeatherDisplay:10.37,2013-05-20 04:46:00,
2013-05-20 00:51:00,64.0,60.1,29.90,West,260,0.0,0.0,87,0.00,OVC,,0.02,WeatherDisplay:10.37,2013-05-20 04:51:00,
2013-05-20 00:56:00,64.0,60.1,29.89,West,260,0.0,0.0,87,0.00,OVC,,0.02,WeatherDisplay:10.37,2013-05-20 04:56:00,
2013-05-20 01:01:00,64.0,60.1,29.89,West,260,0.0,0.0,87,0.02,OVC,,0.02,WeatherDisplay:10.37,2013-05-20 05:01:00,
2013-05-20 01:06:00,64.0,60.1,29.89,West,260,0.0,0.0,87,0.02,OVC,,0.02,WeatherDisplay:10.37,2013-05-20 05:06:00,
2013-05-20 01:11:00,64.0,60.4,29.89,West,260,0.0,0.0,88,0.02,OVC,,0.02,WeatherDisplay:10.37,2013-05-20 05:11:00,
2013-05-20 01:16:00,64.0,60.4,29.89,West,260,0.0,0.0,88,0.02,OVC,,0.02,WeatherDisplay:10.37,2013-05-20 05:16:00,
2013-05-20 01:21:00,64.0,60.4,29.89,West,260,0.0,0.0,88,0.02,OVC,,0.02,WeatherDisplay:10.37,2013-05-20 05:21:00,
2013-05-20 01:26:00,64.0,60.4,29.89,West,260,0.0,0.0,88,0.02,OVC,,0.02,WeatherDisplay:10.37,2013-05-20 05:26:00,
2013-05-20 01:31:00,64.0,60.4,29.89,West,260,0.0,0.0,88,0.00,OVC,,0.02,WeatherDisplay:10.37,2013-05-20 05:31:00,
2013-05-20 01:36:00,64.0,60.4,29.89,West,260,0.0,0.0,88,0.00,OVC,,0.02,WeatherDisplay:10.37,2013-05-20 05:36:00,
2013-05-20 01:41:00,64.0,60.4,29.89,West,260,0.0,0.0,88,0.00,OVC,,0.02,WeatherDisplay:10.37,2013-05-20 05:41:00,
2013-05-20 01:46:00,64.0,60.4,29.89,West,260,0.0,0.0,88,0.00,OVC,,0.02,WeatherDisplay:10.37,2013-05-20 05:46:00,
2013-05-20 01:51:00,64.0,60.4,29.89,West,260,0.0,0.0,88,0.00,OVC,,0.02,WeatherDisplay:10.37,2013-05-20 05:51:00,
2013-05-20 01:56:00,64.0,60.4,29.88,West,260,0.0,0.0,88,0.00,OVC,,0.02,WeatherDisplay:10.37,2013-05-20 05:56:00,
2013-05-20 02:01:00,64.0,60.4,29.88,West,260,0.0,0.0,88,0.00,OVC,,0.02,WeatherDisplay:10.37,2013-05-20 06:01:00,
2013-05-20 02:06:00,64.0,60.4,29.88,West,260,0.0,0.0,88,0.00,OVC,,0.02,WeatherDisplay:10.37,2013-05-20 06:06:00,
2013-05-20 02:11:00,64.0,60.4,29.88,West,260,0.0,0.0,88,0.00,-DZ,,0.02,WeatherDisplay:10.37,2013-05-20 06:11:00,
2013-05-20 02:16:00,64.0,60.4,29.88,West,260,0.0,0.0,88,0.00,-DZ,,0.02,WeatherDisplay:10.37,2013-05-20 06:16:00,
2013-05-20 02:21:00,64.0,60.4,29.88,West,260,0.0,0.0,88,0.00,OVC,,0.02,WeatherDisplay:10.37,2013-05-20 06:21:00,
2013-05-20 02:26:00,64.0,60.4,29.87,West,260,0.0,0.0,88,0.00,OVC,,0.02,WeatherDisplay:10.37,2013-05-20 06:26:00,
2013-05-20 02:31:00,63.9,60.2,29.88,West,260,0.0,0.0,88,0.00,OVC,,0.02,WeatherDisplay:10.37,2013-05-20 06:31:00,
2013-05-20 02:36:00,63.7,60.1,29.87,West,260,0.0,0.0,88,0.00,OVC,,0.02,WeatherDisplay:10.37,2013-05-20 06:36:00,
2013-05-20 02:41:00,63.9,60.2,29.87,West,260,0.0,0.0,88,0.00,OVC,,0.02,WeatherDisplay:10.37,2013-05-20 06:41:00,
2013-05-20 02:46:00,63.7,60.1,29.87,West,260,0.0,0.0,88,0.00,OVC,,0.02,WeatherDisplay:10.37,2013-05-20 06:46:00,
2013-05-20 02:51:00,63.7,60.1,29.86,West,260,0.0,0.0,88,0.00,OVC,,0.02,WeatherDisplay:10.37,2013-05-20 06:51:00,
2013-05-20 02:56:00,63.7,60.1,29.86,West,260,0.0,0.0,88,0.00,OVC,,0.02,WeatherDisplay:10.37,2013-05-20 06:56:00,
2013-05-20 03:01:00,63.7,60.1,29.86,West,260,0.0,0.0,88,0.00,OVC,,0.02,WeatherDisplay:10.37,2013-05-20 07:01:00,
2013-05-20 03:06:00,63.7,60.1,29.86,West,260,0.0,0.0,88,0.00,OVC,,0.02,WeatherDisplay:10.37,2013-05-20 07:06:00,
2013-05-20 03:11:00,63.7,60.4,29.86,West,260,0.0,0.0,89,0.00,OVC,,0.02,WeatherDisplay:10.37,2013-05-20 07:11:00,
2013-05-20 03:16:00,63.5,60.2,29.86,West,260,0.0,0.0,89,0.00,OVC,,0.02,WeatherDisplay:10.37,2013-05-20 07:16:00,
2013-05-20 03:21:00,63.5,60.2,29.86,West,260,0.0,0.0,89,0.00,OVC,,0.02,WeatherDisplay:10.37,2013-05-20 07:21:00,
2013-05-20 03:26:00,63.3,60.0,29.85,West,260,0.0,0.0,89,0.00,OVC,,0.02,WeatherDisplay:10.37,2013-05-20 07:26:00,
2013-05-20 03:31:00,63.5,60.2,29.85,West,260,0.0,0.0,89,0.00,OVC,,0.02,WeatherDisplay:10.37,2013-05-20 07:31:00,
2013-05-20 03:36:00,63.5,60.2,29.85,West,260,0.0,0.0,89,0.00,OVC,,0.02,WeatherDisplay:10.37,2013-05-20 07:36:00,
2013-05-20 03:41:00,63.3,60.0,29.86,West,260,0.0,0.0,89,0.00,OVC,,0.02,WeatherDisplay:10.37,2013-05-20 07:41:00,
2013-05-20 03:46:00,63.3,60.0,29.86,West,260,0.0,0.0,89,0.00,OVC,,0.02,WeatherDisplay:10.37,2013-05-20 07:46:00,
2013-05-20 03:51:00,63.3,60.0,29.86,West,260,0.0,0.0,89,0.00,OVC,,0.02,WeatherDisplay:10.37,2013-05-20 07:51:00,
2013-05-20 03:56:00,63.1,59.8,29.86,West,260,0.0,0.0,89,0.00,OVC,,0.02,WeatherDisplay:10.37,2013-05-20 07:56:00,
2013-05-20 04:01:00,63.1,59.8,29.86,West,260,0.0,0.0,89,0.00,OVC,,0.02,WeatherDisplay:10.37,2013-05-20 08:01:00,
2013-05-20 04:06:00,63.1,59.8,29.86,West,260,0.0,0.0,89,0.00,OVC,,0.02,WeatherDisplay:10.37,2013-05-20 08:06:00,
2013-05-20 04:11:00,63.1,59.8,29.85,West,260,0.0,0.0,89,0.00,OVC,,0.02,WeatherDisplay:10.37,2013-05-20 08:11:00,
2013-05-20 04:16:00,63.1,59.8,29.85,West,260,0.0,0.0,89,0.00,OVC,,0.02,WeatherDisplay:10.37,2013-05-20 08:16:00,
2013-05-20 04:21:00,63.1,59.8,29.85,West,260,0.0,0.0,89,0.00,OVC,,0.02,WeatherDisplay:10.37,2013-05-20 08:21:00,
2013-05-20 04:26:00,63.1,59.8,29.85,West,260,0.0,0.0,89,0.00,OVC,,0.02,WeatherDisplay:10.37,2013-05-20 08:26:00,
2013-05-20 04:31:00,63.1,59.8,29.85,West,260,0.0,0.0,89,0.00,OVC,,0.02,WeatherDisplay:10.37,2013-05-20 08:31:00,
2013-05-20 04:36:00,63.1,59.8,29.86,West,260,0.0,0.0,89,0.00,OVC,,0.02,WeatherDisplay:10.37,2013-05-20 08:36:00,
2013-05-20 04:41:00,63.1,59.8,29.86,West,260,0.0,0.0,89,0.00,OVC,,0.02,WeatherDisplay:10.37,2013-05-20 08:41:00,
2013-05-20 04:46:00,63.1,59.8,29.86,West,260,0.0,0.0,89,0.00,OVC,,0.02,WeatherDisplay:10.37,2013-05-20 08:46:00,
2013-05-20 04:51:00,63.1,59.8,29.86,West,260,0.0,0.0,89,0.00,OVC,,0.02,WeatherDisplay:10.37,2013-05-20 08:51:00,
2013-05-20 04:56:00,63.1,59.8,29.86,West,260,0.0,0.0,89,0.00,OVC,,0.02,WeatherDisplay:10.37,2013-05-20 08:56:00,
2013-05-20 05:01:00,63.1,59.8,29.86,West,260,0.0,0.0,89,0.00,OVC,,0.02,WeatherDisplay:10.37,2013-05-20 09:01:00,
2013-05-20 05:06:00,63.1,59.8,29.86,West,260,0.0,0.0,89,0.00,OVC,,0.02,WeatherDisplay:10.37,2013-05-20 09:06:00,
2013-05-20 05:11:00,63.1,59.8,29.86,West,260,0.0,0.0,89,0.00,BKN,,0.02,WeatherDisplay:10.37,2013-05-20 09:11:00,
2013-05-20 05:16:00,63.1,59.8,29.86,West,260,0.0,0.0,89,0.00,BKN,,0.02,WeatherDisplay:10.37,2013-05-20 09:16:00,
2013-05-20 05:21:00,63.0,59.7,29.86,West,260,0.0,0.0,89,0.00,BKN,,0.02,WeatherDisplay:10.37,2013-05-20 09:21:00,
2013-05-20 05:26:00,62.8,59.5,29.86,West,260,0.0,0.0,89,0.00,BKN,,0.02,WeatherDisplay:10.37,2013-05-20 09:26:00,
2013-05-20 05:31:00,62.8,59.5,29.86,West,260,0.0,0.0,89,0.00,BKN,,0.02,WeatherDisplay:10.37,2013-05-20 09:31:00,
2013-05-20 05:36:00,62.8,59.5,29.86,West,260,0.0,0.0,89,0.00,BKN,,0.02,WeatherDisplay:10.37,2013-05-20 09:36:00,
2013-05-20 05:41:00,62.6,59.3,29.86,West,260,0.0,0.0,89,0.00,BKN,,0.02,WeatherDisplay:10.37,2013-05-20 09:41:00,
2013-05-20 05:46:00,62.6,59.3,29.86,West,260,0.0,0.0,89,0.00,BKN,,0.02,WeatherDisplay:10.37,2013-05-20 09:46:00,
2013-05-20 05:51:00,62.4,59.1,29.86,West,260,0.0,0.0,89,0.00,OVC,,0.02,WeatherDisplay:10.37,2013-05-20 09:51:00,
2013-05-20 05:56:00,62.6,59.3,29.87,West,260,0.0,0.0,89,0.00,OVC,,0.02,WeatherDisplay:10.37,2013-05-20 09:56:00,
2013-05-20 06:01:00,62.6,59.3,29.87,West,260,0.0,0.0,89,0.00,OVC,,0.02,WeatherDisplay:10.37,2013-05-20 10:01:00,
2013-05-20 06:06:00,62.4,59.1,29.87,West,260,0.0,0.0,89,0.00,OVC,,0.02,WeatherDisplay:10.37,2013-05-20 10:06:00,
2013-05-20 06:11:00,62.4,59.1,29.87,West,260,0.0,0.0,89,0.00,OVC,,0.02,WeatherDisplay:10.37,2013-05-20 10:11:00,
2013-05-20 06:16:00,62.4,59.1,29.87,West,260,0.0,0.0,89,0.00,OVC,,0.02,WeatherDisplay:10.37,2013-05-20 10:16:00,
2013-05-20 06:21:00,62.4,59.1,29.87,West,260,0.0,0.0,89,0.00,OVC,,0.02,WeatherDisplay:10.37,2013-05-20 10:21:00,
2013-05-20 06:26:00,62.8,59.5,29.88,West,260,0.0,0.0,89,0.00,OVC,,0.02,WeatherDisplay:10.37,2013-05-20 10:26:00,
2013-05-20 06:31:00,62.8,59.5,29.88,SSW,200,0.0,3.5,89,0.00,OVC,,0.02,WeatherDisplay:10.37,2013-05-20 10:31:00,
2013-05-20 06:36:00,62.8,59.5,29.88,SSW,200,3.5,3.5,89,0.00,OVC,,0.02,WeatherDisplay:10.37,2013-05-20 10:36:00,
2013-05-20 06:41:00,62.8,59.5,29.88,SSW,200,3.5,3.5,89,0.00,OVC,,0.02,WeatherDisplay:10.37,2013-05-20 10:41:00,
2013-05-20 06:46:00,63.0,59.7,29.88,SSW,200,3.5,3.5,89,0.00,OVC,,0.02,WeatherDisplay:10.37,2013-05-20 10:46:00,
2013-05-20 06:51:00,63.0,59.7,29.88,SSW,200,3.5,0.0,89,0.00,OVC,,0.02,WeatherDisplay:10.37,2013-05-20 10:51:00,
2013-05-20 06:56:00,63.0,59.7,29.88,SSW,200,0.0,0.0,89,0.00,OVC,,0.02,WeatherDisplay:10.37,2013-05-20 10:56:00,
2013-05-20 07:01:00,63.0,59.7,29.88,SSW,200,0.0,0.0,89,0.00,OVC,,0.02,WeatherDisplay:10.37,2013-05-20 11:01:00,
2013-05-20 07:06:00,63.1,59.8,29.88,SSW,200,0.0,0.0,89,0.00,OVC,,0.02,WeatherDisplay:10.37,2013-05-20 11:06:00,
2013-05-20 07:11:00,63.1,59.8,29.89,SSW,200,0.0,0.0,89,0.00,BKN,,0.02,WeatherDisplay:10.37,2013-05-20 11:11:00,
2013-05-20 07:16:00,63.3,60.0,29.89,SSW,200,0.0,0.0,89,0.00,BKN,,0.02,WeatherDisplay:10.37,2013-05-20 11:16:00,
2013-05-20 07:21:00,63.9,60.6,29.89,SSW,200,0.0,0.0,89,0.00,CLR,,0.02,WeatherDisplay:10.37,2013-05-20 11:21:00,
2013-05-20 07:26:00,64.2,60.9,29.89,SSW,200,0.0,0.0,89,0.00,CLR,,0.02,WeatherDisplay:10.37,2013-05-20 11:26:00,
2013-05-20 07:31:00,64.9,61.9,29.89,SSW,200,0.0,0.0,90,0.00,CLR,,0.02,WeatherDisplay:10.37,2013-05-20 11:31:00,
2013-05-20 07:36:00,65.1,62.1,29.89,SSW,200,0.0,0.0,90,0.00,CLR,,0.02,WeatherDisplay:10.37,2013-05-20 11:36:00,
2013-05-20 07:41:00,65.1,62.1,29.89,SSW,200,0.0,0.0,90,0.00,SCT,,0.02,WeatherDisplay:10.37,2013-05-20 11:41:00,
2013-05-20 07:46:00,65.3,62.0,29.89,SSW,200,0.0,0.0,89,0.00,SCT,,0.02,WeatherDisplay:10.37,2013-05-20 11:46:00,
2013-05-20 07:51:00,65.8,62.5,29.89,SSW,200,0.0,0.0,89,0.00,SCT,,0.02,WeatherDisplay:10.37,2013-05-20 11:51:00,
2013-05-20 07:56:00,66.6,63.2,29.89,SSW,200,0.0,0.0,89,0.00,SCT,,0.02,WeatherDisplay:10.37,2013-05-20 11:56:00,
2013-05-20 08:01:00,66.9,63.6,29.88,South,180,3.5,3.5,89,0.00,SCT,,0.02,WeatherDisplay:10.37,2013-05-20 12:01:00,
2013-05-20 08:06:00,66.9,63.2,29.88,South,180,3.5,3.5,88,0.00,SCT,,0.02,WeatherDisplay:10.37,2013-05-20 12:06:00,
2013-05-20 08:11:00,67.5,63.8,29.89,South,180,3.5,3.5,88,0.00,SCT,,0.02,WeatherDisplay:10.37,2013-05-20 12:11:00,
2013-05-20 08:16:00,67.6,63.6,29.88,South,180,3.5,3.5,87,0.00,SCT,,0.02,WeatherDisplay:10.37,2013-05-20 12:16:00,
2013-05-20 08:21:00,67.3,63.3,29.88,South,180,3.5,3.5,87,0.00,CLR,,0.02,WeatherDisplay:10.37,2013-05-20 12:21:00,
2013-05-20 08:26:00,67.8,63.8,29.88,South,180,3.5,3.5,87,0.00,CLR,,0.02,WeatherDisplay:10.37,2013-05-20 12:26:00,
2013-05-20 08:31:00,67.8,63.5,29.88,South,180,3.5,3.5,86,0.00,CLR,,0.02,WeatherDisplay:10.37,2013-05-20 12:31:00,
2013-05-20 08:36:00,68.2,63.8,29.89,South,180,3.5,3.5,86,0.00,CLR,,0.02,WeatherDisplay:10.37,2013-05-20 12:36:00,
2013-05-20 08:41:00,68.2,63.5,29.89,South,170,4.6,4.6,85,0.00,CLR,,0.02,WeatherDisplay:10.37,2013-05-20 12:41:00,
2013-05-20 08:46:00,68.4,63.7,29.89,South,170,4.6,4.6,85,0.00,CLR,,0.02,WeatherDisplay:10.37,2013-05-20 12:46:00,
2013-05-20 08:51:00,68.7,64.0,29.89,South,170,4.6,4.6,85,0.00,CLR,,0.02,WeatherDisplay:10.37,2013-05-20 12:51:00,
2013-05-20 08:56:00,68.7,63.7,29.89,South,170,4.6,4.6,84,0.00,CLR,,0.02,WeatherDisplay:10.37,2013-05-20 12:56:00,
2013-05-20 09:01:00,68.5,63.5,29.89,WSW,240,4.6,4.6,84,0.00,CLR,,0.02,WeatherDisplay:10.37,2013-05-20 13:01:00,
2013-05-20 09:06:00,68.2,63.2,29.90,WSW,240,4.6,4.6,84,0.00,CLR,,0.02,WeatherDisplay:10.37,2013-05-20 13:06:00,
2013-05-20 09:11:00,68.2,63.2,29.90,WSW,240,4.6,4.6,84,0.00,CLR,,0.02,WeatherDisplay:10.37,2013-05-20 13:11:00,
2013-05-20 09:16:00,68.5,63.5,29.90,WSW,240,4.6,4.6,84,0.00,CLR,,0.02,WeatherDisplay:10.37,2013-05-20 13:16:00,
2013-05-20 09:21:00,69.4,64.4,29.90,WSW,240,4.6,4.6,84,0.00,CLR,,0.02,WeatherDisplay:10.37,2013-05-20 13:21:00,
2013-05-20 09:26:00,69.6,64.2,29.90,WSW,240,4.6,4.6,83,0.00,CLR,,0.02,WeatherDisplay:10.37,2013-05-20 13:26:00,
2013-05-20 09:31:00,70.3,64.9,29.90,WSW,240,4.6,4.6,83,0.00,CLR,,0.02,WeatherDisplay:10.37,2013-05-20 13:31:00,
2013-05-20 09:36:00,71.4,65.6,29.90,WSW,240,4.6,4.6,82,0.00,CLR,,0.02,WeatherDisplay:10.37,2013-05-20 13:36:00,
2013-05-20 09:41:00,71.2,65.1,29.90,WSW,240,4.6,4.6,81,0.00,CLR,,0.02,WeatherDisplay:10.37,2013-05-20 13:41:00,
2013-05-20 09:46:00,70.7,64.6,29.90,WSW,240,4.6,4.6,81,0.00,CLR,,0.02,WeatherDisplay:10.37,2013-05-20 13:46:00,
2013-05-20 09:51:00,70.9,64.8,29.90,SW,220,5.8,5.8,81,0.00,SCT,,0.02,WeatherDisplay:10.37,2013-05-20 13:51:00,
2013-05-20 09:56:00,72.0,65.5,29.90,SW,220,5.8,5.8,80,0.00,SCT,,0.02,WeatherDisplay:10.37,2013-05-20 13:56:00,
2013-05-20 10:01:00,72.1,65.3,29.89,SSW,210,8.1,8.1,79,0.00,BKN,,0.02,WeatherDisplay:10.37,2013-05-20 14:01:00,
2013-05-20 10:06:00,71.8,64.9,29.89,SSW,210,8.1,8.1,79,0.00,BKN,,0.02,WeatherDisplay:10.37,2013-05-20 14:06:00,
2013-05-20 10:11:00,72.1,65.3,29.89,SSW,210,8.1,8.1,79,0.00,BKN,,0.02,WeatherDisplay:10.37,2013-05-20 14:11:00,
2013-05-20 10:16:00,72.0,64.7,29.89,SSW,210,8.1,8.1,78,0.00,BKN,,0.02,WeatherDisplay:10.37,2013-05-20 14:16:00,
2013-05-20 10:21:00,72.1,64.5,29.89,South,190,8.1,8.1,77,0.00,BKN,,0.02,WeatherDisplay:10.37,2013-05-20 14:21:00,
2013-05-20 10:26:00,72.7,65.1,29.89,South,190,5.8,5.8,77,0.00,BKN,,0.02,WeatherDisplay:10.37,2013-05-20 14:26:00,
2013-05-20 10:31:00,72.7,65.1,29.89,South,190,5.8,5.8,77,0.00,BKN,,0.02,WeatherDisplay:10.37,2013-05-20 14:31:00,
2013-05-20 10:36:00,72.3,64.3,29.89,South,190,5.8,5.8,76,0.00,BKN,,0.02,WeatherDisplay:10.37,2013-05-20 14:36:00,
2013-05-20 10:41:00,72.3,64.3,29.89,SSW,200,5.8,6.9,76,0.00,BKN,,0.02,WeatherDisplay:10.37,2013-05-20 14:41:00,
2013-05-20 10:46:00,72.3,64.3,29.88,SSW,200,6.9,6.9,76,0.00,BKN,,0.02,WeatherDisplay:10.37,2013-05-20 14:46:00,
2013-05-20 10:51:00,72.3,64.3,29.88,SSW,200,6.9,6.9,76,0.00,BKN,,0.02,WeatherDisplay:10.37,2013-05-20 14:51:00,
2013-05-20 10:56:00,72.3,63.9,29.89,SSW,200,6.9,6.9,75,0.00,BKN,,0.02,WeatherDisplay:10.37,2013-05-20 14:56:00,
2013-05-20 11:01:00,72.9,64.5,29.89,SSW,200,6.9,6.9,75,0.00,BKN,,0.02,WeatherDisplay:10.37,2013-05-20 15:01:00,
2013-05-20 11:06:00,73.0,64.3,29.89,SSW,200,6.9,6.9,74,0.00,BKN,,0.02,WeatherDisplay:10.37,2013-05-20 15:06:00,
2013-05-20 11:11:00,72.7,63.9,29.88,SSW,210,6.9,6.9,74,0.00,OVC,,0.02,WeatherDisplay:10.37,2013-05-20 15:11:00,
2013-05-20 11:16:00,72.7,63.9,29.88,SSW,210,5.8,5.8,74,0.00,OVC,,0.02,WeatherDisplay:10.37,2013-05-20 15:16:00,
2013-05-20 11:21:00,72.7,63.9,29.89,SW,220,6.9,6.9,74,0.00,BKN,,0.02,WeatherDisplay:10.37,2013-05-20 15:21:00,
2013-05-20 11:26:00,72.9,63.7,29.88,SW,220,6.9,6.9,73,0.00,BKN,,0.02,WeatherDisplay:10.37,2013-05-20 15:26:00,
2013-05-20 11:31:00,73.0,63.9,29.88,SW,220,6.9,6.9,73,0.00,BKN,,0.02,WeatherDisplay:10.37,2013-05-20 15:31:00,
2013-05-20 11:36:00,73.2,64.0,29.88,SW,220,6.9,6.9,73,0.00,BKN,,0.02,WeatherDisplay:10.37,2013-05-20 15:36:00,
2013-05-20 11:41:00,73.4,63.8,29.88,SW,220,6.9,6.9,72,0.00,BKN,,0.02,WeatherDisplay:10.37,2013-05-20 15:41:00,
2013-05-20 11:46:00,73.8,64.6,29.88,SW,220,6.9,6.9,73,0.00,BKN,,0.02,WeatherDisplay:10.37,2013-05-20 15:46:00,
2013-05-20 11:51:00,73.9,64.3,29.88,WSW,240,6.9,6.9,72,0.00,BKN,,0.02,WeatherDisplay:10.37,2013-05-20 15:51:00,
2013-05-20 11:56:00,74.5,64.9,29.87,WSW,240,5.8,5.8,72,0.00,BKN,,0.02,WeatherDisplay:10.37,2013-05-20 15:56:00,
2013-05-20 12:01:00,74.5,64.9,29.87,WSW,240,5.8,5.8,72,0.00,BKN,,0.02,WeatherDisplay:10.37,2013-05-20 16:01:00,
2013-05-20 12:06:00,75.4,65.3,29.87,WSW,240,5.8,5.8,71,0.00,BKN,,0.02,WeatherDisplay:10.37,2013-05-20 16:06:00,
2013-05-20 12:11:00,75.0,64.6,29.87,SW,220,5.8,11.5,70,0.00,SCT,,0.02,WeatherDisplay:10.37,2013-05-20 16:11:00,
2013-05-20 12:16:00,75.2,64.7,29.86,SW,220,11.5,11.5,70,0.00,SCT,,0.02,WeatherDisplay:10.37,2013-05-20 16:16:00,
2013-05-20 12:21:00,75.4,64.9,29.87,SSW,210,11.5,11.5,70,0.00,CLR,,0.02,WeatherDisplay:10.37,2013-05-20 16:21:00,
2013-05-20 12:26:00,75.6,64.7,29.87,SSW,210,9.2,9.2,69,0.00,CLR,,0.02,WeatherDisplay:10.37,2013-05-20 16:26:00,
2013-05-20 12:31:00,75.7,64.8,29.87,SSW,210,9.2,9.2,69,0.00,CLR,,0.02,WeatherDisplay:10.37,2013-05-20 16:31:00,
2013-05-20 12:36:00,75.9,65.0,29.87,SSW,210,9.2,9.2,69,0.00,CLR,,0.02,WeatherDisplay:10.37,2013-05-20 16:36:00,
2013-05-20 12:41:00,75.9,64.6,29.86,SSW,210,10.4,10.4,68,0.00,SCT,,0.02,WeatherDisplay:10.37,2013-05-20 16:41:00,
2013-05-20 12:46:00,75.9,64.6,29.86,SSW,210,10.4,10.4,68,0.00,SCT,,0.02,WeatherDisplay:10.37,2013-05-20 16:46:00,
2013-05-20 12:51:00,76.6,65.3,29.86,SSW,210,10.4,10.4,68,0.00,SCT,,0.02,WeatherDisplay:10.37,2013-05-20 16:51:00,
2013-05-20 12:56:00,75.9,64.2,29.86,SSW,210,10.4,10.4,67,0.00,SCT,,0.02,WeatherDisplay:10.37,2013-05-20 16:56:00,
2013-05-20 13:01:00,75.9,64.2,29.86,SW,220,10.4,10.4,67,0.00,SCT,,0.02,WeatherDisplay:10.37,2013-05-20 17:01:00,
2013-05-20 13:06:00,75.9,64.2,29.86,SW,220,10.4,10.4,67,0.00,SCT,,0.02,WeatherDisplay:10.37,2013-05-20 17:06:00,
2013-05-20 13:11:00,76.1,63.9,29.86,SW,220,10.4,10.4,66,0.00,SCT,,0.02,WeatherDisplay:10.37,2013-05-20 17:11:00,
2013-05-20 13:16:00,76.1,63.9,29.86,SW,220,10.4,10.4,66,0.00,SCT,,0.02,WeatherDisplay:10.37,2013-05-20 17:16:00,
2013-05-20 13:21:00,76.1,64.3,29.85,SSW,210,10.4,10.4,67,0.00,SCT,,0.02,WeatherDisplay:10.37,2013-05-20 17:21:00,
2013-05-20 13:26:00,76.3,64.5,29.85,SSW,210,5.8,5.8,67,0.00,SCT,,0.02,WeatherDisplay:10.37,2013-05-20 17:26:00,
2013-05-20 13:31:00,76.6,64.0,29.85,SSW,210,5.8,5.8,65,0.00,SCT,,0.02,WeatherDisplay:10.37,2013-05-20 17:31:00,
2013-05-20 13:36:00,76.8,64.6,29.85,SSW,210,5.8,5.8,66,0.00,SCT,,0.02,WeatherDisplay:10.37,2013-05-20 17:36:00,
2013-05-20 13:41:00,77.2,64.9,29.85,SSW,210,5.8,5.8,66,0.00,SCT,,0.02,WeatherDisplay:10.37,2013-05-20 17:41:00,
2013-05-20 13:46:00,77.4,65.1,29.85,SSW,210,5.8,5.8,66,0.00,SCT,,0.02,WeatherDisplay:10.37,2013-05-20 17:46:00,
2013-05-20 13:51:00,76.8,64.6,29.85,WSW,240,5.8,6.9,66,0.00,CLR,,0.02,WeatherDisplay:10.37,2013-05-20 17:51:00,
2013-05-20 13:56:00,76.8,64.2,29.85,WSW,240,6.9,6.9,65,0.00,CLR,,0.02,WeatherDisplay:10.37,2013-05-20 17:56:00,
2013-05-20 14:01:00,76.8,64.2,29.84,SW,220,6.9,6.9,65,0.00,CLR,,0.02,WeatherDisplay:10.37,2013-05-20 18:01:00,
2013-05-20 14:06:00,77.2,64.9,29.84,SW,220,6.9,6.9,66,0.00,CLR,,0.02,WeatherDisplay:10.37,2013-05-20 18:06:00,
2013-05-20 14:11:00,77.2,64.5,29.84,SW,220,6.9,6.9,65,0.00,CLR,,0.02,WeatherDisplay:10.37,2013-05-20 18:11:00,
2013-05-20 14:16:00,77.2,64.9,29.84,SW,220,6.9,6.9,66,0.00,CLR,,0.02,WeatherDisplay:10.37,2013-05-20 18:16:00,
2013-05-20 14:21:00,77.2,64.5,29.84,SW,220,6.9,6.9,65,0.00,CLR,,0.02,WeatherDisplay:10.37,2013-05-20 18:21:00,
2013-05-20 14:26:00,77.5,64.8,29.84,SW,220,6.9,6.9,65,0.00,CLR,,0.02,WeatherDisplay:10.37,2013-05-20 18:26:00,
2013-05-20 14:31:00,77.7,64.6,29.83,SW,220,6.9,0.0,64,0.00,CLR,,0.02,WeatherDisplay:10.37,2013-05-20 18:31:00,
2013-05-20 14:36:00,77.4,64.2,29.83,SW,220,0.0,0.0,64,0.00,CLR,,0.02,WeatherDisplay:10.37,2013-05-20 18:36:00,
2013-05-20 14:41:00,77.2,64.1,29.83,South,190,4.6,4.6,64,0.00,CLR,,0.02,WeatherDisplay:10.37,2013-05-20 18:41:00,
2013-05-20 14:46:00,77.2,64.1,29.83,South,190,4.6,4.6,64,0.00,CLR,,0.02,WeatherDisplay:10.37,2013-05-20 18:46:00,
2013-05-20 14:51:00,77.4,64.2,29.83,South,190,4.6,4.6,64,0.00,CLR,,0.02,WeatherDisplay:10.37,2013-05-20 18:51:00,
2013-05-20 14:56:00,77.4,64.2,29.83,South,190,4.6,4.6,64,0.00,CLR,,0.02,WeatherDisplay:10.37,2013-05-20 18:56:00,
2013-05-20 15:01:00,77.5,64.4,29.83,South,190,4.6,4.6,64,0.00,CLR,,0.02,WeatherDisplay:10.37,2013-05-20 19:01:00,
2013-05-20 15:06:00,77.5,63.9,29.82,South,190,4.6,4.6,63,0.00,CLR,,0.02,WeatherDisplay:10.37,2013-05-20 19:06:00,
2013-05-20 15:11:00,77.5,63.9,29.82,SE,140,4.6,4.6,63,0.00,CLR,,0.02,WeatherDisplay:10.37,2013-05-20 19:11:00,
2013-05-20 15:16:00,77.5,63.9,29.82,SE,140,4.6,4.6,63,0.00,CLR,,0.02,WeatherDisplay:10.37,2013-05-20 19:16:00,
2013-05-20 15:21:00,77.5,64.4,29.82,SE,140,4.6,4.6,64,0.00,CLR,,0.02,WeatherDisplay:10.37,2013-05-20 19:21:00,
2013-05-20 15:26:00,77.5,63.9,29.82,SE,140,4.6,4.6,63,0.00,CLR,,0.02,WeatherDisplay:10.37,2013-05-20 19:26:00,
2013-05-20 15:31:00,77.7,64.6,29.82,South,190,4.6,4.6,64,0.00,CLR,,0.02,WeatherDisplay:10.37,2013-05-20 19:31:00,
2013-05-20 15:36:00,77.5,63.9,29.82,South,190,4.6,4.6,63,0.00,CLR,,0.02,WeatherDisplay:10.37,2013-05-20 19:36:00,
2013-05-20 15:41:00,77.5,64.4,29.82,South,190,4.6,4.6,64,0.00,CLR,,0.02,WeatherDisplay:10.37,2013-05-20 19:41:00,
2013-05-20 15:46:00,77.7,64.6,29.82,South,190,4.6,4.6,64,0.00,CLR,,0.02,WeatherDisplay:10.37,2013-05-20 19:46:00,
2013-05-20 15:51:00,78.1,64.5,29.82,South,180,4.6,4.6,63,0.00,CLR,,0.02,WeatherDisplay:10.37,2013-05-20 19:51:00,
2013-05-20 15:56:00,77.9,64.3,29.81,South,180,4.6,4.6,63,0.00,CLR,,0.02,WeatherDisplay:10.37,2013-05-20 19:56:00,
2013-05-20 16:01:00,78.4,64.8,29.81,South,180,4.6,4.6,63,0.00,CLR,,0.02,WeatherDisplay:10.37,2013-05-20 20:01:00,
2013-05-20 16:06:00,78.6,65.0,29.81,South,180,4.6,4.6,63,0.00,CLR,,0.02,WeatherDisplay:10.37,2013-05-20 20:06:00,
2013-05-20 16:11:00,78.6,65.0,29.80,SSE,150,9.2,9.2,63,0.00,SCT,,0.02,WeatherDisplay:10.37,2013-05-20 20:11:00,
2013-05-20 16:16:00,79.0,64.8,29.80,SSE,150,9.2,9.2,62,0.00,SCT,,0.02,WeatherDisplay:10.37,2013-05-20 20:16:00,
2013-05-20 16:21:00,79.0,63.9,29.80,SSE,150,9.2,9.2,60,0.00,SCT,,0.02,WeatherDisplay:10.37,2013-05-20 20:21:00,
2013-05-20 16:26:00,79.0,63.9,29.80,SSE,150,9.2,9.2,60,0.00,SCT,,0.02,WeatherDisplay:10.37,2013-05-20 20:26:00,
2013-05-20 16:31:00,79.0,63.9,29.80,SSE,160,9.2,9.2,60,0.00,SCT,,0.02,WeatherDisplay:10.37,2013-05-20 20:31:00,
2013-05-20 16:36:00,79.0,63.9,29.80,SSE,160,8.1,8.1,60,0.00,SCT,,0.02,WeatherDisplay:10.37,2013-05-20 20:36:00,
2013-05-20 16:41:00,79.2,64.6,29.80,SSE,160,8.1,8.1,61,0.00,SCT,,0.02,WeatherDisplay:10.37,2013-05-20 20:41:00,
2013-05-20 16:46:00,78.6,63.6,29.80,SSE,160,8.1,8.1,60,0.00,SCT,,0.02,WeatherDisplay:10.37,2013-05-20 20:46:00,
2013-05-20 16:51:00,77.7,63.2,29.81,SSE,150,8.1,9.2,61,0.00,CLR,,0.02,WeatherDisplay:10.37,2013-05-20 20:51:00,
2013-05-20 16:56:00,77.5,63.0,29.81,SSE,150,9.2,9.2,61,0.00,CLR,,0.02,WeatherDisplay:10.37,2013-05-20 20:56:00,
2013-05-20 17:01:00,77.2,63.2,29.81,SSE,150,9.2,9.2,62,0.00,CLR,,0.02,WeatherDisplay:10.37,2013-05-20 21:01:00,
2013-05-20 17:06:00,77.2,63.6,29.81,SSE,150,9.2,9.2,63,0.00,CLR,,0.02,WeatherDisplay:10.37,2013-05-20 21:06:00,
2013-05-20 17:11:00,76.8,63.3,29.81,SSE,150,9.2,11.5,63,0.00,CLR,,0.02,WeatherDisplay:10.37,2013-05-20 21:11:00,
2013-05-20 17:16:00,76.8,63.7,29.80,SSE,150,11.5,11.5,64,0.00,CLR,,0.02,WeatherDisplay:10.37,2013-05-20 21:16:00,
2013-05-20 17:21:00,76.6,63.5,29.81,SSE,160,11.5,11.5,64,0.00,CLR,,0.02,WeatherDisplay:10.37,2013-05-20 21:21:00,
2013-05-20 17:26:00,76.5,63.8,29.81,SSE,160,6.9,6.9,65,0.00,CLR,,0.02,WeatherDisplay:10.37,2013-05-20 21:26:00,
2013-05-20 17:31:00,76.3,64.1,29.81,SSE,160,6.9,6.9,66,0.00,CLR,,0.02,WeatherDisplay:10.37,2013-05-20 21:31:00,
2013-05-20 17:36:00,75.9,64.2,29.81,SSE,160,6.9,6.9,67,0.00,CLR,,0.02,WeatherDisplay:10.37,2013-05-20 21:36:00,
2013-05-20 17:41:00,75.9,64.2,29.82,South,170,6.9,6.9,67,0.00,CLR,,0.02,WeatherDisplay:10.37,2013-05-20 21:41:00,
2013-05-20 17:46:00,75.7,64.0,29.82,South,170,5.8,5.8,67,0.00,CLR,,0.02,WeatherDisplay:10.37,2013-05-20 21:46:00,
2013-05-20 17:51:00,75.7,64.0,29.82,South,170,5.8,5.8,67,0.00,CLR,,0.02,WeatherDisplay:10.37,2013-05-20 21:51:00,
2013-05-20 17:56:00,75.6,63.8,29.83,South,170,5.8,5.8,67,0.00,CLR,,0.02,WeatherDisplay:10.37,2013-05-20 21:56:00,
2013-05-20 18:01:00,75.4,64.1,29.83,SSW,200,5.8,5.8,68,0.00,BKN,,0.02,WeatherDisplay:10.37,2013-05-20 22:01:00,
2013-05-20 18:06:00,75.2,63.9,29.83,SSW,200,4.6,4.6,68,0.00,BKN,,0.02,WeatherDisplay:10.37,2013-05-20 22:06:00,
2013-05-20 18:11:00,74.8,63.1,29.83,SSW,200,4.6,4.6,67,0.00,BKN,,0.02,WeatherDisplay:10.37,2013-05-20 22:11:00,
2013-05-20 18:16:00,73.9,62.7,29.83,SSW,200,4.6,4.6,68,0.00,BKN,,0.02,WeatherDisplay:10.37,2013-05-20 22:16:00,
2013-05-20 18:21:00,73.6,62.4,29.83,West,270,4.6,9.2,68,0.00,OVC,,0.02,WeatherDisplay:10.37,2013-05-20 22:21:00,
2013-05-20 18:26:00,73.2,62.4,29.82,West,270,9.2,9.2,69,0.00,OVC,,0.02,WeatherDisplay:10.37,2013-05-20 22:26:00,
2013-05-20 18:31:00,72.7,61.9,29.82,West,270,9.2,9.2,69,0.00,OVC,,0.02,WeatherDisplay:10.37,2013-05-20 22:31:00,
2013-05-20 18:36:00,72.5,61.7,29.82,West,270,9.2,9.2,69,0.00,OVC,,0.02,WeatherDisplay:10.37,2013-05-20 22:36:00,
2013-05-20 18:41:00,72.3,62.0,29.82,West,270,9.2,9.2,70,0.00,OVC,,0.02,WeatherDisplay:10.37,2013-05-20 22:41:00,
2013-05-20 18:46:00,72.1,61.8,29.82,West,270,9.2,9.2,70,0.00,OVC,,0.02,WeatherDisplay:10.37,2013-05-20 22:46:00,
2013-05-20 18:51:00,71.4,61.1,29.81,SW,220,9.2,9.2,70,0.00,BKN,,0.02,WeatherDisplay:10.37,2013-05-20 22:51:00,
2013-05-20 18:56:00,71.2,61.4,29.82,SW,220,4.6,4.6,71,0.00,BKN,,0.02,WeatherDisplay:10.37,2013-05-20 22:56:00,
2013-05-20 19:01:00,70.9,61.0,29.82,SW,220,4.6,4.6,71,0.00,BKN,,0.02,WeatherDisplay:10.37,2013-05-20 23:01:00,
2013-05-20 19:06:00,70.5,60.7,29.82,SW,220,4.6,4.6,71,0.00,BKN,,0.02,WeatherDisplay:10.37,2013-05-20 23:06:00,
2013-05-20 19:11:00,70.0,60.5,29.83,SSW,200,9.2,9.2,72,0.00,BKN,,0.02,WeatherDisplay:10.37,2013-05-20 23:11:00,
2013-05-20 19:16:00,69.4,60.0,29.83,SSW,200,9.2,9.2,72,0.00,BKN,,0.02,WeatherDisplay:10.37,2013-05-20 23:16:00,
2013-05-20 19:21:00,68.7,59.7,29.82,SW,220,9.2,9.2,73,0.00,SCT,,0.02,WeatherDisplay:10.37,2013-05-20 23:21:00,
2013-05-20 19:26:00,68.5,59.9,29.82,SW,220,5.8,5.8,74,0.00,SCT,,0.02,WeatherDisplay:10.37,2013-05-20 23:26:00,
2013-05-20 19:31:00,68.4,60.1,29.82,SW,220,5.8,5.8,75,0.00,SCT,,0.02,WeatherDisplay:10.37,2013-05-20 23:31:00,
2013-05-20 19:36:00,67.8,60.0,29.82,SW,220,5.8,5.8,76,0.00,SCT,,0.02,WeatherDisplay:10.37,2013-05-20 23:36:00,
2013-05-20 19:41:00,67.8,60.3,29.82,SW,220,5.8,5.8,77,0.00,SCT,,0.02,WeatherDisplay:10.37,2013-05-20 23:41:00,
2013-05-20 19:46:00,67.6,60.2,29.82,SW,220,5.8,5.8,77,0.00,SCT,,0.02,WeatherDisplay:10.37,2013-05-20 23:46:00,
2013-05-20 19:51:00,67.3,60.2,29.82,SSW,210,5.8,5.8,78,0.00,-RA,,0.02,WeatherDisplay:10.37,2013-05-20 23:51:00,
2013-05-20 19:56:00,67.1,60.0,29.81,SSW,210,4.6,4.6,78,0.00,-RA,,0.02,WeatherDisplay:10.37,2013-05-20 23:56:00,
2013-05-20 20:01:00,66.7,60.0,29.81,SSW,210,4.6,4.6,79,0.00,-RA,,0.02,WeatherDisplay:10.37,2013-05-21 00:01:00,
2013-05-20 20:06:00,66.7,60.0,29.81,SSW,210,4.6,4.6,79,0.00,-RA,,0.02,WeatherDisplay:10.37,2013-05-21 00:06:00,
2013-05-20 20:11:00,66.6,59.5,29.80,SSW,210,4.6,4.6,78,0.00,-RA,,0.02,WeatherDisplay:10.37,2013-05-21 00:11:00,
2013-05-20 20:16:00,66.6,59.5,29.80,SSW,210,4.6,4.6,78,0.00,-RA,,0.02,WeatherDisplay:10.37,2013-05-21 00:16:00,
2013-05-20 20:21:00,66.6,59.5,29.81,SSW,210,4.6,4.6,78,0.00,-RA,,0.02,WeatherDisplay:10.37,2013-05-21 00:21:00,
2013-05-20 20:26:00,66.6,59.5,29.81,SSW,210,4.6,4.6,78,0.00,-RA,,0.02,WeatherDisplay:10.37,2013-05-21 00:26:00,
2013-05-20 20:31:00,66.6,59.1,29.82,South,190,4.6,4.6,77,0.00,-RA,,0.02,WeatherDisplay:10.37,2013-05-21 00:31:00,
2013-05-20 20:36:00,66.6,59.5,29.82,South,190,3.5,3.5,78,0.00,-RA,,0.02,WeatherDisplay:10.37,2013-05-21 00:36:00,
2013-05-20 20:41:00,66.4,59.3,29.82,South,190,3.5,3.5,78,0.00,-RA,,0.02,WeatherDisplay:10.37,2013-05-21 00:41:00,
2013-05-20 20:46:00,66.4,59.3,29.82,South,190,3.5,3.5,78,0.00,-RA,,0.02,WeatherDisplay:10.37,2013-05-21 00:46:00,
2013-05-20 20:51:00,66.4,59.3,29.82,South,190,3.5,0.0,78,0.00,CLR,,0.02,WeatherDisplay:10.37,2013-05-21 00:51:00,
2013-05-20 20:56:00,66.4,59.3,29.82,South,190,0.0,0.0,78,0.00,CLR,,0.02,WeatherDisplay:10.37,2013-05-21 00:56:00,
2013-05-20 21:01:00,66.4,59.3,29.82,South,190,0.0,0.0,78,0.00,CLR,,0.02,WeatherDisplay:10.37,2013-05-21 01:01:00,
2013-05-20 21:06:00,66.0,59.0,29.83,South,190,0.0,0.0,78,0.00,CLR,,0.02,WeatherDisplay:10.37,2013-05-21 01:06:00,
2013-05-20 21:11:00,66.0,59.0,29.83,West,280,0.0,5.8,78,0.00,CLR,,0.02,WeatherDisplay:10.37,2013-05-21 01:11:00,
2013-05-20 21:16:00,65.8,59.1,29.83,West,280,5.8,5.8,79,0.00,CLR,,0.02,WeatherDisplay:10.37,2013-05-21 01:16:00,
2013-05-20 21:21:00,65.5,58.8,29.83,West,280,5.8,5.8,79,0.00,CLR,,0.02,WeatherDisplay:10.37,2013-05-21 01:21:00,
2013-05-20 21:26:00,65.5,58.8,29.82,West,280,5.8,5.8,79,0.00,CLR,,0.02,WeatherDisplay:10.37,2013-05-21 01:26:00,
2013-05-20 21:31:00,65.5,58.8,29.83,WSW,250,5.8,5.8,79,0.00,CLR,,0.02,WeatherDisplay:10.37,2013-05-21 01:31:00,
2013-05-20 21:36:00,65.5,58.8,29.83,WSW,250,3.5,3.5,79,0.00,CLR,,0.02,WeatherDisplay:10.37,2013-05-21 01:36:00,
2013-05-20 21:41:00,65.5,58.8,29.82,WSW,250,3.5,3.5,79,0.00,CLR,,0.02,WeatherDisplay:10.37,2013-05-21 01:41:00,
2013-05-20 21:46:00,65.7,59.0,29.82,WSW,250,3.5,3.5,79,0.00,CLR,,0.02,WeatherDisplay:10.37,2013-05-21 01:46:00,
2013-05-20 21:51:00,65.8,59.5,29.83,South,180,3.5,3.5,80,0.00,CLR,,0.02,WeatherDisplay:10.37,2013-05-21 01:51:00,
2013-05-20 21:56:00,65.8,59.5,29.83,South,180,3.5,3.5,80,0.00,CLR,,0.02,WeatherDisplay:10.37,2013-05-21 01:56:00,
2013-05-20 22:01:00,65.8,59.5,29.83,South,180,3.5,3.5,80,0.00,CLR,,0.02,WeatherDisplay:10.37,2013-05-21 02:01:00,
2013-05-20 22:06:00,65.8,59.5,29.84,South,180,3.5,3.5,80,0.00,CLR,,0.02,WeatherDisplay:10.37,2013-05-21 02:06:00,
2013-05-20 22:11:00,66.0,59.7,29.84,SSE,150,3.5,4.6,80,0.00,CLR,,0.02,WeatherDisplay:10.37,2013-05-21 02:11:00,
2013-05-20 22:16:00,66.0,59.3,29.84,SSE,150,4.6,4.6,79,0.00,CLR,,0.02,WeatherDisplay:10.37,2013-05-21 02:16:00,
2013-05-20 22:21:00,66.0,59.7,29.84,SW,220,4.6,4.6,80,0.00,CLR,,0.02,WeatherDisplay:10.37,2013-05-21 02:21:00,
2013-05-20 22:26:00,65.8,59.5,29.84,SW,220,3.5,3.5,80,0.00,CLR,,0.02,WeatherDisplay:10.37,2013-05-21 02:26:00,
2013-05-20 22:31:00,65.7,59.3,29.83,SW,220,3.5,3.5,80,0.00,CLR,,0.02,WeatherDisplay:10.37,2013-05-21 02:31:00,
2013-05-20 22:36:00,65.5,59.1,29.83,SW,220,3.5,3.5,80,0.00,CLR,,0.02,WeatherDisplay:10.37,2013-05-21 02:36:00,
2013-05-20 22:41:00,65.7,59.3,29.83,SSE,160,3.5,4.6,80,0.00,CLR,,0.02,WeatherDisplay:10.37,2013-05-21 02:41:00,
2013-05-20 22:46:00,65.5,59.1,29.83,SSE,160,4.6,4.6,80,0.00,CLR,,0.02,WeatherDisplay:10.37,2013-05-21 02:46:00,
2013-05-20 22:51:00,65.5,59.1,29.82,SSE,160,4.6,4.6,80,0.00,CLR,,0.02,WeatherDisplay:10.37,2013-05-21 02:51:00,
2013-05-20 22:56:00,65.3,59.0,29.83,SSE,160,4.6,4.6,80,0.00,CLR,,0.02,WeatherDisplay:10.37,2013-05-21 02:56:00,
2013-05-20 23:01:00,65.1,59.1,29.82,SSE,160,4.6,0.0,81,0.00,CLR,,0.02,WeatherDisplay:10.37,2013-05-21 03:01:00,
2013-05-20 23:06:00,65.1,59.1,29.82,SSE,160,0.0,0.0,81,0.00,CLR,,0.02,WeatherDisplay:10.37,2013-05-21 03:06:00,
2013-05-20 23:11:00,64.9,59.0,29.82,SSE,160,0.0,0.0,81,0.00,CLR,,0.02,WeatherDisplay:10.37,2013-05-21 03:11:00,
2013-05-20 23:16:00,64.9,59.0,29.82,SSE,160,0.0,0.0,81,0.00,CLR,,0.02,WeatherDisplay:10.37,2013-05-21 03:16:00,
2013-05-20 23:21:00,64.9,59.0,29.82,WSW,240,0.0,3.5,81,0.00,CLR,,0.02,WeatherDisplay:10.37,2013-05-21 03:21:00,
2013-05-20 23:26:00,64.9,59.0,29.82,WSW,240,3.5,3.5,81,0.00,CLR,,0.02,WeatherDisplay:10.37,2013-05-21 03:26:00,
2013-05-20 23:31:00,64.8,59.1,29.82,WSW,240,3.5,3.5,82,0.00,CLR,,0.02,WeatherDisplay:10.37,2013-05-21 03:31:00,
2013-05-20 23:36:00,64.6,59.0,29.82,WSW,240,3.5,3.5,82,0.00,CLR,,0.02,WeatherDisplay:10.37,2013-05-21 03:36:00,
2013-05-20 23:41:00,64.6,59.0,29.82,WSW,240,3.5,0.0,82,0.00,CLR,,0.02,WeatherDisplay:10.37,2013-05-21 03:41:00,
2013-05-20 23:46:00,64.6,59.0,29.82,WSW,240,0.0,0.0,82,0.00,CLR,,0.02,WeatherDisplay:10.37,2013-05-21 03:46:00,
2013-05-20 23:51:00,64.2,58.9,29.82,WSW,240,0.0,0.0,83,0.00,CLR,,0.02,WeatherDisplay:10.37,2013-05-21 03:51:00,
2013-05-20 23:56:00,64.2,58.9,29.82,WSW,240,0.0,0.0,83,0.00,CLR,,0.02,WeatherDisplay:10.37,2013-05-21 03:56:00,